Temperature
11 11 11 11 11 11 11 11 11 11 12 13 13 14 14 14 14 14 14 14 15 15 15 15 15 15 15 15 16 16 16 16 16 16 16 16 17 17
11 11 11 11 11 11 11 11 11 11 11 12 12 13 13 13 13 13 14 14 14 14 14 15 15 15 15 15 15 15 16 16 16 16 16 16 16 16
10 10 10 10 10 11 11 11 11 11 11 11 12 12 13 13 13 13 13 13 14 14 14 14 15 15 15 15 15 15 15 16 16 16 16 16 16 16
10 10 10 10 10 10 10 10 10 10 10 11 11 12 12 12 12 13 13 13 13 14 14 14 14 14 15 15 15 15 15 15 15 16 16 16 16 16
10 10 10 10 10 10 10 10 10 10 10 10 11 11 11 12 12 12 12 12 13 13 13 14 14 14 14 14 15 15 15 15 15 15 16 16 16 16
10 10 10 10 10 10 10 10 10 10 10 10 10 10 11 11 11 11 12 12 12 13 13 13 13 14 14 14 14 14 15 15 15 15 15 15 16 16
10 10 10 10 10 9 9 9 9 9 9 9 10 10 10 10 11 11 11 12 12 12 12 13 13 13 14 14 14 14 14 15 15 15 15 15 15 15
10 10 10 10 9 9 9 9 9 9 9 9 9 9 10 10 10 10 10 11 11 12 12 12 12 13 13 13 14 14 14 14 14 15 15 15 15 15
10 10 10 10 9 9 9 9 9 9 9 9 9 9 9 10 10 10 10 10 11 11 11 12 12 12 13 13 13 14 14 14 14 15 15 15 15 15
10 10 10 9 9 9 9 9 9 9 9 9 9 9 9 9 9 9 9 10 10 11 11 11 12 12 13 13 13 13 14 14 14 14 15 15 15 15
10 10 9 9 9 9 9 9 9 9 9 9 9 9 9 9 9 9 9 9 10 10 11 10 11 12 12 13 13 13 13 13 14 14 14 14 15 15
10 10 9 9 9 9 8 8 8 9 8 8 8 9 9 9 9 9 9 9 9 9 11 11 11 11 11 12 12 13 13 13 13 13 14 14 14 14
10 10 10 9 9 8 8 8 8 8 8 8 8 8 9 9 9 9 9 9 9 9 10 10 10 11 11 11 12 12 12 12 13 13 13 13 14 14
10 10 10 9 9 8 8 8 8 8 8 8 8 8 8 9 9 9 9 9 9 9 9 10 10 10 10 10 11 11 12 12 12 12 13 13 13 13
10 10 9 9 9 9 8 8 8 8 8 8 8 8 8 8 8 8 9 9 9 9 9 9 9 10 10 10 10 11 11 11 11 12 12 12 12 13
10 10 9 9 9 9 8 8 8 8 8 8 8 8 8 8 8 8 8 9 9 9 9 9 9 9 10 10 10 10 11 11 11 11 12 12 12 12
10 9 9 9 9 9 9 8 8 8 8 8 8 8 8 8 8 8 8 8 8 9 9 9 9 9 10 10 10 10 10 11 11 11 11 11 11 11
10 9 9 9 9 9 9 8 8 8 8 8 8 8 8 8 8 8 8 8 8 8 9 9 9 9 9 9 10 10 10 10 11 11 11 11 11 11
10 9 9 9 9 9 8 8 8 8 8 8 8 8 8 8 8 8 8 8 8 8 9 9 9 9 9 9 10 10 10 10 10 10 10 11 11 11
10 9 9 9 9 9 9 8 8 8 8 8 8 8 8 8 8 8 8 8 8 8 8 9 9 9 9 9 9 10 10 10 10 10 10 10 11 11
10 9 9 9 9 9 8 8 8 8 8 8 8 8 8 8 8 8 8 8 8 8 8 9 9 9 9 9 9 9 10 10 10 10 10 10 10 10
9 9 9 9 9 9 9 8 8 8 8 8 8 8 8 8 8 8 8 8 8 8 8 9 9 9 9 9 9 9 9 10 10 10 10 10 10 10
9 9 9 9 9 9 9 8 8 8 8 8 8 8 8 8 8 8 8 8 8 8 8 8 8 8 9 9 9 9 9 9 9 9 9 10 10 10
Wind_Speed
4 4 3 3 3 3 3 4 3 3 4 4 3 3 3 4 6 6 8 10 12 14 16 18 19 21 23 25 28 30 32 32 32 32 32 31 30 29
3 4 4 3 4 3 3 3 4 5 4 4 4 4 4 4 6 6 8 10 12 12 14 17 19 20 21 23 25 28 30 31 32 32 32 31 31 30
4 4 5 5 4 4 3 3 3 4 5 5 4 4 4 5 5 6 8 9 10 13 14 16 18 20 22 23 25 26 28 30 30 31 31 31 31 31
5 5 6 5 5 4 4 4 4 4 5 6 4 3 5 5 5 5 5 7 9 12 15 16 18 20 21 22 24 26 27 28 29 30 30 31 31 31
6 6 6 5 6 5 5 5 5 5 4 5 5 4 4 4 4 5 5 4 7 10 13 15 17 19 20 22 24 25 26 28 29 29 30 30 30 30
6 6 7 7 7 7 6 6 6 5 4 4 5 4 4 4 2 4 4 4 5 6 8 10 12 15 18 20 22 23 25 26 28 28 29 29 30 30
6 7 7 9 11 9 7 6 6 5 5 5 5 4 4 3 4 3 4 4 4 4 4 5 5 6 9 15 19 22 23 25 26 27 28 28 28 29
7 7 8 9 11 11 12 11 9 8 7 6 5 6 7 6 5 4 3 3 4 3 2 5 4 6 6 9 15 19 22 23 25 26 27 27 28 28
8 7 8 8 9 7 9 11 10 13 13 9 8 9 8 7 6 5 5 5 6 4 2 5 3 5 5 10 14 17 20 22 23 25 26 26 26 26
8 8 8 9 9 8 8 8 8 8 9 8 8 10 10 8 8 7 7 6 6 5 4 4 4 4 4 5 12 15 17 19 21 22 24 24 25 25
8 8 8 8 12 12 8 8 8 8 10 12 12 13 14 13 9 5 5 4 6 5 4 4 4 3 3 4 6 12 14 16 17 19 21 22 23 22
7 7 10 10 11 9 6 6 8 8 7 7 7 8 9 10 12 9 8 7 5 5 5 5 4 3 3 2 2 4 6 10 13 16 18 19 20 15
6 6 7 11 11 10 8 7 10 9 6 7 7 7 6 6 7 8 8 9 8 7 5 5 4 3 3 2 2 2 3 3 5 7 13 17 20 16
8 7 8 11 12 12 9 11 14 10 6 6 6 7 7 8 8 8 9 9 10 10 8 7 5 5 4 3 3 2 2 3 4 4 6 12 15 17
8 10 11 13 12 10 13 14 11 7 6 7 9 9 8 8 7 6 6 7 8 10 11 8 8 6 6 5 5 4 3 3 4 5 6 7 7 8
7 8 10 12 11 11 11 9 7 7 8 9 8 8 7 6 7 6 6 5 5 6 7 9 9 9 7 6 6 5 5 4 4 5 5 5 6 8
3 3 4 5 6 7 7 8 7 7 8 8 8 8 7 7 7 6 5 5 5 6 5 4 5 7 8 7 6 7 6 5 5 6 6 5 6 8
4 4 6 7 8 8 8 8 7 7 8 8 8 8 8 7 7 5 5 6 6 6 6 5 4 3 3 4 8 7 6 6 6 7 5 6 7 7
5 7 8 8 9 8 8 8 8 8 7 7 8 8 8 7 7 6 6 6 6 6 6 5 5 6 7 6 5 8 8 7 7 7 7 5 6 7
7 8 9 9 9 8 8 8 8 7 6 7 7 7 7 7 7 7 6 7 6 6 5 5 6 8 8 7 4 5 10 9 8 8 6 3 3 4
8 8 9 9 8 8 8 8 7 7 7 6 6 7 7 7 7 7 7 8 7 6 7 7 8 9 5 3 3 3 4 7 8 7 7 6 4 4
8 8 8 8 8 8 7 7 7 7 7 7 7 6 6 6 7 7 7 6 7 7 8 6 5 5 5 6 7 5 4 4 4 6 4 4 5 7
8 8 7 7 7 6 6 7 7 6 6 6 6 6 6 6 6 6 6 6 5 6 6 5 4 5 5 6 6 5 6 7 5 4 2 5 3 6
Wind_Direction
275 275 264 259 250 234 214 197 203 259 281 280 284 291 293 289 277 258 252 248 242 239 238 238 238 235 231 227 223 220 219 219 219 219 219 219 219 221
267 273 273 266 266 257 235 218 200 207 244 262 260 272 284 285 277 262 261 258 252 249 244 240 238 237 235 230 225 221 220 218 218 219 218 218 218 219
278 271 271 268 266 267 256 237 222 202 235 265 260 272 278 281 284 277 271 261 259 257 253 248 241 238 236 233 228 224 221 219 218 218 218 218 218 218
268 268 270 272 265 261 254 249 243 225 220 255 271 275 269 272 271 275 271 263 256 261 258 255 249 243 238 235 231 226 222 220 219 218 218 219 218 218
259 259 263 264 265 261 253 249 249 252 226 235 259 261 268 275 282 282 275 272 266 264 260 255 250 246 242 237 232 227 224 222 220 219 219 219 219 219
260 257 258 254 253 255 257 251 248 249 241 239 253 262 263 271 266 271 287 282 277 273 263 258 254 249 242 238 233 228 225 223 221 221 220 220 219 220
264 263 263 265 260 254 255 244 240 241 244 242 250 256 259 264 257 252 266 285 282 257 267 265 256 252 245 239 234 229 224 222 221 220 220 220 219 220
264 270 274 275 275 274 270 259 237 233 234 234 240 240 248 243 245 247 251 273 287 272 255 270 243 249 245 238 235 228 224 222 221 221 219 217 216 217
253 262 274 275 278 272 275 277 264 250 235 226 232 238 240 235 232 244 238 234 243 252 246 268 254 251 249 245 236 230 226 222 219 218 217 215 214 213
250 250 255 266 272 263 264 269 264 260 251 240 233 240 239 233 224 230 238 248 257 254 214 246 253 253 259 249 237 227 224 221 217 215 213 213 212 211
257 256 252 258 266 267 259 262 269 270 266 254 244 244 245 244 233 232 239 237 259 261 214 218 241 247 255 254 242 227 222 219 216 212 209 209 208 206
262 261 257 256 263 268 248 247 261 267 272 278 271 268 258 254 244 224 223 229 237 253 227 204 222 215 261 257 234 220 215 217 214 211 206 203 199 196
253 258 256 257 260 262 253 237 247 256 263 262 266 270 266 257 250 232 221 221 226 235 226 194 210 206 212 247 260 218 204 198 194 200 201 199 194 190
245 250 253 258 259 262 260 250 255 262 259 257 258 259 257 255 251 243 234 228 228 231 224 203 210 208 207 220 236 221 201 202 194 192 187 189 194 197
243 248 257 264 267 267 261 260 261 252 245 249 253 254 249 249 249 251 248 237 236 238 235 217 214 214 206 216 217 211 212 217 201 193 189 190 193 188
250 263 272 273 269 262 265 266 252 238 235 244 250 253 251 248 246 240 241 238 242 252 238 221 215 212 219 216 212 214 199 197 194 192 186 194 191 190
239 273 275 276 276 273 268 263 255 246 242 242 245 252 252 248 247 236 228 224 226 239 244 232 219 214 209 201 211 214 204 201 197 189 186 199 202 195
198 246 261 263 263 266 268 269 261 251 246 242 241 242 245 246 248 239 223 220 229 234 233 225 205 199 212 233 211 208 208 206 196 190 187 200 204 196
212 245 252 257 260 260 258 259 260 256 247 241 240 239 238 239 241 241 232 224 229 232 230 214 201 204 215 226 223 204 202 198 190 196 197 197 202 193
227 244 251 255 256 257 258 258 258 258 249 243 239 236 232 233 237 238 233 228 228 228 230 219 211 211 215 216 208 203 194 191 193 195 193 179 156 146
241 244 249 253 254 254 256 256 255 255 249 242 239 234 230 228 234 236 233 231 226 224 228 230 227 211 202 181 193 203 192 191 187 183 176 169 166 166
251 251 252 252 253 255 255 255 257 256 251 244 241 237 231 226 230 233 232 230 227 225 230 233 217 192 188 199 208 197 181 157 137 124 128 156 173 181
250 253 255 256 255 255 254 253 253 254 248 243 241 236 231 228 230 229 230 228 229 228 224 220 208 197 198 198 197 188 177 168 158 146 75 31 117 133
Height
1520 1519 1519 1519 1519 1519 1519 1519 1519 1517 1516 1516 1517 1517 1518 1517 1518 1518 1518 1519 1520 1521 1523 1525 1527 1530 1533 1536 1539 1543 1547 1551 1555 1559 1562 1566 1569 1573
1516 1516 1515 1515 1515 1515 1515 1515 1514 1514 1512 1512 1513 1513 1513 1513 1514 1514 1514 1514 1515 1516 1517 1518 1520 1522 1525 1528 1531 1535 1539 1543 1547 1551 1555 1559 1563 1566
1513 1512 1512 1511 1510 1510 1510 1510 1510 1509 1508 1507 1508 1508 1508 1508 1509 1509 1509 1509 1510 1510 1511 1512 1513 1515 1518 1520 1523 1527 1531 1535 1539 1543 1547 1551 1555 1559
1510 1509 1508 1507 1506 1506 1505 1505 1504 1504 1503 1502 1502 1503 1503 1503 1503 1503 1504 1504 1504 1505 1505 1506 1507 1508 1510 1513 1515 1519 1523 1527 1531 1535 1540 1544 1548 1552
1506 1505 1504 1503 1502 1501 1500 1500 1499 1499 1498 1497 1497 1497 1497 1498 1498 1498 1498 1498 1498 1499 1499 1499 1500 1501 1503 1505 1507 1511 1514 1518 1522 1527 1531 1535 1540 1544
1502 1501 1499 1498 1497 1496 1495 1494 1494 1494 1493 1492 1491 1491 1492 1492 1492 1492 1492 1493 1493 1493 1493 1493 1494 1494 1495 1497 1499 1502 1506 1510 1514 1518 1522 1527 1532 1536
1498 1496 1494 1493 1491 1490 1490 1489 1489 1488 1488 1487 1486 1486 1486 1486 1487 1487 1487 1486 1486 1487 1486 1487 1487 1488 1489 1490 1492 1494 1497 1501 1505 1509 1514 1519 1523 1528
1493 1491 1490 1488 1486 1485 1485 1484 1483 1483 1482 1481 1480 1480 1480 1481 1481 1481 1481 1481 1480 1482 1481 1480 1481 1481 1482 1483 1485 1487 1490 1493 1497 1501 1505 1510 1515 1520
1488 1487 1485 1483 1482 1480 1479 1478 1477 1477 1477 1476 1474 1474 1474 1475 1475 1475 1475 1475 1475 1475 1476 1474 1475 1475 1476 1477 1478 1480 1483 1485 1489 1493 1497 1502 1507 1512
1484 1482 1480 1478 1477 1475 1474 1472 1471 1471 1471 1470 1469 1468 1468 1469 1469 1469 1469 1469 1468 1469 1470 1468 1469 1469 1470 1471 1472 1474 1476 1478 1481 1485 1489 1494 1498 1503
1479 1477 1475 1473 1472 1470 1468 1466 1465 1465 1465 1464 1463 1462 1462 1462 1463 1463 1463 1463 1461 1462 1464 1463 1463 1463 1464 1464 1466 1467 1469 1472 1474 1478 1481 1486 1490 1495
1475 1473 1470 1468 1466 1465 1463 1461 1459 1459 1458 1457 1457 1456 1456 1456 1456 1456 1456 1456 1456 1455 1457 1458 1458 1458 1458 1458 1460 1462 1463 1465 1468 1471 1474 1478 1482 1486
1469 1467 1465 1463 1461 1459 1458 1456 1454 1453 1451 1450 1449 1449 1449 1449 1449 1449 1449 1450 1449 1449 1451 1453 1452 1453 1453 1453 1454 1456 1458 1459 1462 1464 1468 1471 1475 1479
1463 1461 1460 1458 1456 1454 1452 1450 1449 1447 1445 1443 1442 1442 1441 1441 1442 1442 1442 1442 1442 1443 1445 1446 1447 1448 1448 1448 1449 1451 1453 1454 1456 1459 1462 1465 1468 1472
1457 1455 1454 1452 1449 1447 1446 1444 1442 1440 1438 1436 1435 1434 1435 1434 1434 1434 1434 1435 1435 1436 1437 1439 1440 1441 1442 1443 1444 1446 1447 1449 1451 1453 1456 1459 1462 1465
1451 1450 1448 1446 1443 1441 1439 1437 1435 1433 1431 1429 1428 1428 1427 1427 1427 1427 1428 1428 1428 1429 1431 1432 1434 1435 1435 1437 1439 1440 1442 1444 1446 1449 1451 1454 1456 1459
1446 1443 1441 1439 1437 1435 1432 1430 1428 1426 1424 1423 1422 1421 1420 1420 1420 1421 1421 1422 1423 1423 1424 1426 1428 1429 1430 1431 1433 1434 1437 1439 1442 1444 1446 1448 1451 1454
1439 1437 1435 1433 1430 1428 1426 1423 1421 1419 1418 1416 1415 1415 1414 1414 1414 1415 1415 1416 1417 1417 1418 1420 1422 1423 1424 1426 1428 1429 1432 1434 1437 1440 1442 1444 1446 1449
1433 1431 1428 1427 1424 1422 1420 1417 1415 1413 1412 1410 1409 1409 1408 1408 1408 1408 1409 1410 1411 1412 1413 1415 1416 1417 1418 1419 1421 1425 1427 1429 1432 1435 1438 1440 1442 1445
1427 1424 1422 1420 1418 1416 1414 1412 1409 1408 1406 1404 1403 1403 1402 1402 1402 1402 1403 1404 1405 1406 1407 1409 1410 1411 1413 1415 1417 1419 1422 1424 1427 1430 1433 1436 1439 1442
1420 1418 1416 1414 1412 1410 1408 1406 1404 1402 1400 1399 1398 1397 1397 1397 1396 1397 1397 1398 1399 1400 1401 1402 1404 1407 1409 1411 1412 1413 1416 1420 1422 1425 1428 1432 1434 1437
1414 1412 1410 1408 1406 1404 1402 1400 1398 1396 1395 1393 1392 1392 1391 1391 1391 1392 1392 1393 1394 1394 1396 1397 1399 1401 1403 1405 1406 1408 1412 1415 1418 1421 1425 1428 1429 1432
1408 1406 1404 1402 1400 1398 1397 1395 1393 1391 1389 1388 1387 1387 1386 1386 1387 1387 1388 1388 1389 1389 1391 1392 1394 1396 1398 1400 1402 1405 1408 1411 1414 1417 1420 1423 1426 1430